| Temperature (°F) | Max | Average | Min |
|---|---|---|---|
| Max Temperature | 106 | 96.19 | 66 |
| Avg Temperature | 88.91 | 82.22 | 66 |
| Min Temperature | 79 | 68.78 | 61 |
| Precipitation (in) | Max | Average | Min | Sum |
|---|---|---|---|---|
| Precipitation | 0 | 0 | 0 | 0 |
| Dew Point (°F) | Max | Average | Min |
|---|---|---|---|
| Dew Point | 62.05 | 36.91 | 22.78 |
| Wind (mph) | Max | Average | Min |
|---|---|---|---|
| Wind | 23 | 14.5 | 5 |
| Gust Wind | - | - | - |
| Sea Level Pressure (in) | Max | Average | Min |
|---|---|---|---|
| Sea Level Pressure | 28.37 | 28.25 | 28.14 |
| Date | Temp High/Low | Dew Pt High/Low | Humidity | Wind | Max Wind | Wind Gust | Pressure | Precip. | Condition |
|---|---|---|---|---|---|---|---|---|---|
| 3/1/2021 | 91 °F / 61 °F | 41 °F / 19 °F | 21 % | 14 mph | - | 28.28 in | 0 in | ||
| 3/2/2021 | 93 °F / 64 °F | 50 °F / 25 °F | 21 % | 16 mph | - | 28.29 in | 0 in | ||
| 3/3/2021 | 93 °F / 63 °F | 45 °F / 21 °F | 21 % | 21 mph | - | 28.29 in | 0 in | ||
| 3/4/2021 | 93 °F / 61 °F | 52 °F / 10 °F | 24 % | 18 mph | - | 28.29 in | 0 in | ||
| 3/5/2021 | 93 °F / 61 °F | 41 °F / 14 °F | 21 % | 17 mph | - | 28.28 in | 0 in | ||
| 3/6/2021 | 97 °F / 63 °F | 48 °F / 14 °F | 22 % | 14 mph | - | 28.31 in | 0 in | ||
| 3/7/2021 | 97 °F / 63 °F | 48 °F / 5 °F | 15 % | 16 mph | - | 28.3 in | 0 in | ||
| 3/8/2021 | 97 °F / 63 °F | 37 °F / 14 °F | 19 % | 15 mph | - | 28.25 in | 0 in | ||
| 3/9/2021 | 100 °F / 61 °F | 55 °F / 10 °F | 21 % | 14 mph | - | 28.2 in | 0 in | ||
| 3/10/2021 | 102 °F / 63 °F | 46 °F / 16 °F | 21 % | 13 mph | - | 28.18 in | 0 in | ||
| 3/11/2021 | 102 °F / 66 °F | 52 °F / 25 °F | 23 % | 13 mph | - | 28.15 in | 0 in | ||
| 3/12/2021 | 104 °F / 73 °F | 64 °F / 45 °F | 33 % | 14 mph | - | 28.14 in | 0 in | ||
| 3/13/2021 | 100 °F / 79 °F | 52 °F / 25 °F | 17 % | 13 mph | - | 28.19 in | 0 in | ||
| 3/14/2021 | 100 °F / 77 °F | 50 °F / 28 °F | 17 % | 9 mph | - | 28.21 in | 0 in | ||
| 3/15/2021 | 100 °F / 75 °F | 48 °F / 28 °F | 20 % | 10 mph | - | 28.19 in | 0 in | ||
| 3/16/2021 | 99 °F / 72 °F | 46 °F / 37 °F | 23 % | 8 mph | - | 28.18 in | 0 in | ||
| 3/17/2021 | 99 °F / 73 °F | 48 °F / 37 °F | 22 % | 12 mph | - | 28.21 in | 0 in | ||
| 3/18/2021 | 97 °F / 72 °F | 52 °F / 36 °F | 27 % | 8 mph | - | 28.21 in | 0 in | ||
| 3/19/2021 | 102 °F / 77 °F | 68 °F / 45 °F | 37 % | 12 mph | - | 28.2 in | 0 in | ||
| 3/20/2021 | 102 °F / 77 °F | 63 °F / 43 °F | 36 % | 15 mph | - | 28.19 in | 0 in | ||
| 3/21/2021 | 106 °F / 75 °F | 63 °F / 21 °F | 27 % | 15 mph | - | 28.16 in | 0 in | ||
| 3/22/2021 | 102 °F / 73 °F | 52 °F / 34 °F | 24 % | 12 mph | - | 28.16 in | 0 in | ||
| 3/23/2021 | 99 °F / 75 °F | 70 °F / 43 °F | 44 % | 20 mph | - | 28.23 in | 0 in | ||
| 3/24/2021 | 100 °F / 72 °F | 66 °F / 30 °F | 36 % | 13 mph | - | 28.26 in | 0 in | ||
| 3/25/2021 | 95 °F / 77 °F | 43 °F / 16 °F | 14 % | 9 mph | - | 28.29 in | 0 in | ||
| 3/26/2021 | 93 °F / 68 °F | 37 °F / 18 °F | 15 % | 18 mph | - | 28.32 in | 0 in | ||
| 3/27/2021 | 90 °F / 64 °F | 39 °F / 19 °F | 15 % | 21 mph | - | 28.36 in | 0 in | ||
| 3/28/2021 | 88 °F / 70 °F | 43 °F / 21 °F | 20 % | 20 mph | - | 28.37 in | 0 in | ||
| 3/29/2021 | 97 °F / 68 °F | 77 °F / 18 °F | 23 % | 18 mph | - | 28.35 in | 0 in | ||
| 3/30/2021 | 90 °F / 66 °F | 52 °F / -2 °F | 19 % | 18 mph | - | 28.34 in | 0 in | ||
| 3/31/2021 | 91 °F / 63 °F | 46 °F / 16 °F | 18 % | 23 mph | - | 28.31 in | 0 in |